Wind_Speed
19 19 19 18 18 18 18 18 17 16 16 16 15 14 13 12 11 10 9 9 9 8 8 7 8 8 9 10 10 10 9 9 9 10 10 10 11 12 13 14 14 15 15 15
19 18 18 19 18 18 18 17 17 16 16 16 16 15 13 12 11 10 9 9 8 7 8 8 8 8 9 10 10 10 10 10 10 10 10 11 12 13 14 14 14 15 15 15
18 18 19 19 19 18 17 17 16 16 16 17 17 15 14 12 12 11 10 9 9 8 9 9 8 8 9 9 9 9 9 10 10 10 11 12 13 14 14 15 15 15 15 15
20 20 20 19 19 18 17 16 17 17 17 18 17 15 13 13 12 11 10 10 9 9 9 8 8 9 9 10 10 10 11 11 12 12 13 13 14 14 15 15 16 16 16 16
21 20 20 19 19 18 17 17 18 18 18 19 18 16 14 14 14 13 12 11 11 11 10 10 10 10 10 11 11 11 12 12 13 13 14 15 15 15 15 15 16 16 17 17
21 21 21 20 19 20 18 18 18 18 18 19 17 17 16 15 15 14 14 14 14 13 12 11 11 11 11 12 13 13 12 12 13 14 15 15 16 16 16 16 17 17 18 17
22 22 22 21 21 21 20 19 18 18 18 18 17 17 16 15 16 16 15 15 15 14 13 13 12 12 13 13 13 13 12 13 13 14 15 15 15 15 16 16 17 18 18 18
21 22 22 22 21 21 20 20 19 19 19 18 18 18 17 16 17 16 16 15 14 14 14 14 14 13 13 13 13 13 13 14 14 15 16 16 16 16 17 17 18 18 18 18
21 22 23 23 22 21 21 21 20 20 20 20 19 19 17 16 17 17 17 16 15 14 14 14 14 14 14 14 14 14 14 14 16 16 16 16 16 16 17 18 18 18 18 18
22 22 23 23 23 22 22 21 21 21 20 21 20 19 18 17 18 18 17 17 17 16 15 15 14 13 14 14 14 14 15 15 16 16 16 16 15 16 17 17 18 18 18 18
22 22 23 23 23 22 22 23 22 22 21 21 21 19 18 18 18 18 17 16 16 16 16 15 14 14 14 15 15 15 15 15 16 16 16 15 15 16 16 17 17 17 18 18
22 22 22 23 23 22 22 23 23 23 22 22 21 19 18 19 18 17 17 16 16 15 15 15 14 13 13 13 14 15 15 15 15 16 16 15 16 16 16 16 16 16 17 17
23 23 22 23 24 24 24 24 24 24 24 23 22 20 18 18 18 17 16 16 15 15 15 15 15 14 13 14 14 14 15 15 15 15 15 15 15 15 14 15 15 15 15 16
24 24 23 23 24 25 25 25 25 25 25 24 23 20 18 18 18 17 17 16 15 15 15 14 14 14 14 14 14 15 15 14 15 15 15 15 16 15 15 15 16 16 15 15
24 24 23 23 23 25 25 25 24 25 24 24 22 20 18 18 18 17 17 17 16 16 15 15 15 15 15 15 15 15 14 15 15 16 16 15 16 16 16 16 16 15 16 16
25 24 24 23 23 24 24 24 25 24 24 23 22 21 19 18 18 18 18 17 17 16 16 16 16 15 15 15 15 15 15 15 15 15 16 16 17 16 16 16 15 15 16 16
26 25 24 23 22 24 23 22 23 25 25 24 23 22 21 20 20 19 19 18 18 17 17 16 16 16 15 15 15 15 14 15 15 15 16 16 16 16 16 16 15 15 15 15
26 26 26 25 23 24 22 21 23 24 24 24 24 23 22 21 21 20 19 18 17 18 17 17 16 16 16 16 15 15 15 15 15 16 16 16 16 15 15 15 15 15 15 15
26 26 26 25 24 24 23 22 22 23 22 22 22 22 22 22 22 21 20 20 19 19 18 17 17 16 16 16 16 15 15 15 16 16 16 15 15 15 15 15 15 15 15 15
26 26 26 25 25 25 23 23 23 23 23 22 22 21 21 21 21 21 21 21 20 20 19 19 18 17 16 16 16 15 15 15 15 15 15 15 15 15 15 14 15 15 15 15
27 28 28 26 24 24 23 23 23 23 22 22 22 22 21 21 21 21 22 21 20 20 19 20 19 18 17 16 16 16 16 15 15 15 15 16 16 16 16 15 16 16 16 15
25 26 27 27 26 24 23 24 24 24 23 23 22 22 22 22 21 21 21 21 20 20 20 19 19 18 17 16 16 16 16 16 16 16 16 17 18 17 17 16 16 16 16 15
25 26 26 27 26 24 24 25 25 24 24 23 23 22 22 22 21 21 21 22 21 20 20 19 18 18 17 17 17 17 17 17 16 16 17 18 18 18 17 16 16 16 16 16
24 25 25 26 26 25 25 26 25 25 25 24 23 23 23 23 22 22 22 22 21 19 19 19 18 18 18 17 18 18 17 16 16 16 17 17 17 17 17 18 18 17 17 17
25 26 26 25 24 25 25 24 25 25 25 25 24 24 23 23 23 23 23 22 22 22 20 19 18 18 18 18 19 18 17 16 16 17 17 17 17 17 18 18 18 18 18 17
25 25 25 25 25 25 25 24 24 25 25 25 25 25 24 24 23 23 23 23 21 21 20 19 19 19 19 19 19 18 18 18 17 17 18 18 17 18 18 18 18 18 18 17
Wind_Direction
229 227 225 226 228 228 230 231 233 238 243 245 250 253 256 256 257 261 268 274 281 287 285 294 295 300 303 303 302 301 299 295 289 288 288 291 295 298 299 302 304 304 302 299
228 226 224 226 226 227 229 231 233 239 242 245 247 250 253 254 252 258 266 270 275 281 283 288 287 294 302 304 301 300 297 291 287 286 288 290 293 296 299 301 301 302 301 298
227 225 224 225 226 227 229 231 235 241 240 245 250 249 250 256 252 254 261 263 267 269 276 283 286 294 299 304 301 298 295 290 290 291 292 293 293 296 298 300 302 303 302 299
221 221 223 224 225 228 230 232 236 242 243 242 248 251 250 249 250 252 260 264 267 268 276 278 283 292 299 300 298 297 297 296 296 298 299 299 299 298 299 299 300 299 299 299
222 219 221 224 226 228 229 230 236 242 246 245 245 250 248 248 252 255 263 266 266 270 274 276 284 289 295 299 300 298 298 299 300 300 299 298 298 297 295 295 297 298 299 298
225 223 223 223 223 226 228 232 237 243 246 246 246 250 251 252 253 259 264 268 270 272 274 277 283 288 292 296 298 298 297 298 300 299 299 300 297 295 295 294 296 297 296 296
227 224 223 222 223 225 228 232 236 240 244 247 247 252 256 256 258 261 266 269 272 273 273 278 281 286 289 294 297 296 294 294 297 299 301 302 299 297 296 295 297 300 299 298
230 225 224 225 226 227 229 234 240 246 248 249 250 255 260 258 259 261 265 267 268 270 276 281 282 283 288 290 292 294 295 296 298 301 303 302 297 296 297 296 297 299 299 300
232 229 226 227 227 229 231 236 242 249 250 253 257 260 261 262 259 261 266 265 264 268 276 282 284 283 288 291 290 290 296 297 298 300 301 302 299 296 297 297 298 300 301 299
235 230 226 227 229 231 234 238 241 245 251 256 258 258 261 265 265 266 267 264 263 267 271 275 279 284 289 291 291 291 294 296 297 299 299 298 300 300 298 298 300 299 301 301
234 231 229 228 229 231 233 238 241 246 253 259 262 261 263 264 266 266 267 268 270 271 272 278 279 285 287 286 288 291 294 295 297 301 302 301 302 303 303 302 302 302 304 304
235 233 233 232 233 233 237 241 243 246 253 258 263 264 266 264 264 265 265 268 269 268 272 276 281 288 289 292 295 297 297 294 296 299 302 304 306 304 303 305 305 304 305 308
235 234 234 232 232 232 235 239 243 247 253 257 263 265 264 261 261 263 265 266 265 268 274 275 279 286 289 292 294 295 298 296 297 298 300 304 306 305 304 308 311 312 311 312
236 234 233 234 234 236 239 240 243 247 251 256 259 262 260 259 260 259 260 262 261 267 273 274 277 283 289 289 291 292 295 294 298 302 304 306 306 305 305 308 309 310 310 311
235 234 235 235 234 237 240 241 242 246 250 254 255 256 258 259 258 259 260 259 263 268 271 273 275 281 286 288 288 290 295 298 302 303 304 306 308 306 306 307 308 309 308 309
233 236 236 235 236 239 241 242 244 245 249 251 252 252 256 258 258 259 259 259 263 268 272 273 275 279 283 286 289 291 292 295 299 302 303 305 307 309 308 307 307 309 308 308
235 236 237 237 238 239 241 243 246 248 249 250 251 252 254 256 256 256 256 258 261 266 269 270 273 275 278 285 287 287 292 293 297 300 303 305 307 308 308 307 307 308 308 309
237 237 239 239 239 240 242 244 248 249 249 250 251 252 254 254 253 253 254 257 259 262 265 267 273 275 276 281 287 288 293 294 296 299 304 307 308 308 308 307 306 307 308 309
238 240 241 241 242 243 244 246 249 250 251 250 251 252 255 255 254 254 255 256 257 259 262 264 269 273 274 277 284 288 291 293 295 299 303 305 307 308 310 309 308 307 308 309
239 240 242 243 243 244 246 247 250 251 252 252 252 253 255 255 255 254 254 253 255 259 263 266 268 272 274 278 281 286 290 292 293 296 300 305 307 307 308 309 309 308 309 309
238 240 240 241 244 244 245 248 250 251 251 251 252 253 254 255 255 253 252 252 256 259 263 264 267 271 273 276 278 282 288 292 292 292 297 303 306 306 306 308 310 311 311 311
238 240 240 241 245 245 244 247 248 249 250 252 253 253 254 256 256 256 255 254 257 259 262 264 266 270 273 275 276 280 285 287 290 292 295 299 302 304 307 308 311 313 313 313
239 239 242 243 244 246 247 248 249 249 250 253 253 254 256 257 257 257 256 254 255 256 258 261 265 269 270 272 273 277 282 284 286 290 294 298 300 301 303 306 310 312 311 313
240 240 241 243 243 244 248 246 248 249 250 253 254 254 257 258 258 258 255 255 254 256 256 259 263 267 268 268 270 273 278 279 282 286 292 297 300 302 302 303 304 307 309 310
242 243 242 242 244 245 244 246 249 249 249 250 252 254 254 256 258 259 259 256 254 254 255 255 260 263 266 268 271 272 274 276 281 284 288 295 299 300 302 303 304 305 308 312
243 244 244 243 242 243 245 246 248 247 247 250 253 253 253 255 257 258 259 257 253 252 253 257 261 265 266 269 271 271 271 275 279 282 287 292 295 297 299 301 303 306 308 309
Height
5818 5821 5824 5826 5828 5831 5833 5835 5837 5838 5839 5840 5841 5842 5843 5843 5843 5844 5843 5843 5843 5842 5841 5840 5840 5839 5838 5838 5837 5836 5835 5834 5833 5833 5832 5831 5830 5829 5828 5827 5826 5824 5823 5822
5815 5818 5822 5823 5825 5828 5830 5832 5834 5836 5837 5837 5838 5839 5840 5840 5841 5841 5841 5841 5841 5840 5840 5839 5838 5837 5837 5836 5834 5833 5832 5832 5831 5830 5829 5828 5827 5826 5825 5824 5823 5821 5820 5818
5811 5816 5818 5820 5822 5825 5827 5830 5831 5832 5833 5834 5835 5836 5837 5837 5838 5839 5838 5838 5838 5838 5838 5837 5836 5836 5835 5834 5832 5831 5830 5829 5828 5828 5827 5825 5824 5823 5822 5821 5819 5818 5816 5815
5807 5811 5814 5816 5819 5822 5824 5827 5828 5829 5830 5830 5832 5833 5835 5835 5836 5836 5836 5836 5836 5836 5835 5835 5834 5834 5833 5832 5830 5829 5828 5827 5825 5824 5823 5822 5821 5820 5819 5817 5815 5814 5812 5810
5804 5807 5810 5813 5816 5819 5821 5823 5824 5825 5826 5827 5829 5830 5832 5832 5833 5833 5834 5833 5833 5833 5833 5833 5832 5831 5830 5829 5828 5826 5825 5823 5822 5821 5819 5818 5816 5815 5814 5813 5811 5809 5808 5806
5801 5804 5806 5809 5812 5815 5817 5819 5820 5821 5822 5824 5826 5827 5828 5829 5830 5831 5831 5831 5831 5830 5830 5830 5829 5828 5827 5826 5825 5823 5822 5820 5819 5817 5816 5814 5812 5810 5809 5808 5807 5805 5803 5801
5797 5800 5803 5805 5808 5810 5813 5815 5816 5817 5818 5820 5822 5823 5825 5826 5826 5827 5828 5828 5828 5827 5827 5827 5826 5825 5824 5823 5822 5820 5819 5817 5815 5814 5812 5809 5807 5806 5805 5803 5802 5800 5798 5796
5793 5797 5799 5801 5804 5806 5809 5811 5813 5815 5816 5817 5818 5819 5822 5823 5823 5823 5824 5824 5824 5824 5824 5823 5822 5822 5821 5819 5818 5817 5815 5814 5812 5810 5808 5806 5804 5802 5800 5799 5797 5795 5793 5790
5789 5793 5796 5798 5800 5803 5805 5807 5810 5811 5812 5813 5814 5816 5818 5819 5819 5820 5820 5821 5821 5821 5820 5820 5819 5818 5817 5816 5814 5813 5811 5810 5808 5807 5804 5802 5799 5798 5796 5794 5792 5789 5787 5785
5785 5788 5791 5793 5796 5798 5801 5803 5805 5807 5807 5809 5810 5812 5814 5815 5815 5816 5816 5817 5817 5817 5817 5816 5815 5814 5813 5812 5811 5809 5808 5806 5805 5803 5800 5798 5795 5793 5791 5789 5786 5784 5782 5780
5780 5783 5786 5788 5791 5794 5797 5799 5800 5802 5804 5805 5806 5810 5810 5811 5811 5812 5813 5813 5813 5813 5813 5812 5811 5810 5809 5808 5806 5805 5804 5802 5800 5798 5796 5793 5791 5789 5786 5784 5782 5779 5777 5775
5776 5778 5781 5784 5787 5789 5792 5794 5796 5798 5799 5800 5802 5807 5806 5806 5807 5808 5808 5809 5809 5809 5809 5808 5807 5806 5805 5804 5802 5801 5799 5798 5796 5794 5792 5790 5787 5785 5782 5780 5778 5775 5773 5770
5770 5773 5776 5779 5783 5785 5787 5789 5791 5793 5795 5796 5797 5802 5801 5802 5802 5803 5804 5804 5804 5804 5804 5804 5803 5802 5801 5800 5799 5797 5795 5794 5792 5790 5788 5785 5783 5781 5779 5776 5774 5772 5769 5767
5765 5767 5771 5774 5777 5779 5781 5784 5786 5788 5789 5791 5793 5795 5797 5797 5798 5799 5799 5800 5800 5800 5800 5799 5799 5798 5797 5796 5795 5793 5791 5789 5788 5786 5784 5782 5779 5777 5775 5773 5771 5768 5766 5763
5759 5762 5765 5768 5771 5773 5776 5778 5780 5782 5784 5786 5788 5790 5791 5792 5793 5794 5794 5795 5795 5795 5795 5795 5794 5794 5793 5791 5790 5789 5787 5786 5784 5782 5780 5777 5775 5773 5771 5769 5767 5764 5762 5760
5753 5756 5760 5763 5765 5768 5770 5773 5775 5777 5779 5781 5783 5785 5786 5787 5788 5789 5790 5790 5791 5791 5791 5790 5790 5789 5788 5787 5786 5785 5783 5782 5780 5778 5776 5773 5771 5769 5767 5765 5763 5761 5758 5756
5748 5751 5754 5757 5760 5762 5765 5768 5770 5772 5774 5776 5777 5780 5781 5782 5783 5784 5785 5785 5786 5786 5786 5785 5785 5784 5783 5783 5782 5781 5779 5777 5776 5774 5772 5769 5767 5765 5763 5760 5758 5757 5754 5752
5742 5745 5748 5751 5755 5756 5762 5763 5765 5766 5768 5770 5772 5773 5775 5776 5777 5778 5779 5780 5780 5780 5780 5780 5779 5779 5778 5778 5777 5776 5774 5773 5771 5769 5767 5765 5763 5761 5759 5757 5755 5753 5750 5748
5737 5739 5742 5745 5748 5751 5755 5757 5759 5761 5762 5764 5766 5767 5768 5769 5771 5772 5773 5774 5774 5775 5775 5774 5774 5774 5773 5773 5772 5771 5769 5768 5766 5765 5763 5761 5759 5757 5755 5753 5751 5749 5747 5745
5731 5734 5737 5739 5742 5745 5750 5752 5753 5756 5757 5759 5760 5761 5763 5764 5765 5767 5767 5768 5769 5769 5769 5769 5769 5768 5768 5768 5767 5766 5765 5764 5762 5761 5759 5758 5755 5753 5752 5749 5747 5745 5743 5741
5725 5728 5731 5733 5736 5739 5743 5745 5748 5751 5752 5753 5754 5755 5757 5758 5760 5761 5761 5762 5763 5763 5763 5763 5763 5763 5763 5762 5762 5761 5760 5759 5758 5757 5755 5753 5752 5750 5748 5746 5744 5742 5740 5738
5719 5722 5724 5727 5730 5735 5736 5739 5741 5743 5745 5746 5748 5750 5751 5752 5753 5754 5755 5756 5757 5757 5757 5757 5758 5758 5757 5757 5757 5756 5756 5755 5753 5752 5751 5749 5747 5745 5743 5742 5740 5738 5736 5734
5713 5716 5718 5722 5726 5728 5730 5732 5734 5736 5738 5740 5741 5743 5745 5746 5747 5748 5749 5749 5750 5751 5751 5751 5752 5752 5752 5752 5752 5751 5750 5749 5749 5747 5746 5744 5742 5741 5739 5737 5736 5734 5732 5730
5707 5709 5712 5715 5718 5721 5723 5725 5727 5729 5731 5733 5734 5736 5738 5739 5740 5741 5742 5743 5744 5744 5745 5746 5746 5747 5747 5746 5746 5745 5745 5744 5743 5743 5741 5740 5738 5736 5735 5733 5732 5730 5728 5726
5700 5703 5706 5709 5711 5714 5716 5718 5720 5722 5724 5726 5727 5729 5731 5732 5733 5734 5735 5736 5737 5738 5739 5740 5741 5740 5741 5740 5740 5739 5739 5738 5738 5737 5736 5735 5733 5732 5730 5729 5727 5726 5724 5723
5694 5697 5699 5702 5704 5706 5709 5711 5713 5716 5718 5719 5721 5722 5724 5725 5727 5727 5728 5730 5731 5732 5733 5734 5735 5735 5735 5734 5734 5734 5734 5733 5732 5732 5731 5730 5728 5727 5725 5724 5723 5721 5720 5718